[[{"header":{"parameterUnit":"m.s-1","parameterCategory":1,"la1":30.2991,"la2":30.254,"lo1":-89.0895,"lo2":-89.0444,"dy":0.0017,"dx":0.0017,"nx":28,"ny":28,"refTime":"2024-03-09T03:00:00:Z","depth":0,"parameterNumber":2,"parameterNumberName":"U-component_of_WINDS"},"data":[0,0,0,0,0,0,0,0,0,0,0,0,0,0,0,0,0,0,0,0,0,0,0,0,0,0,0,0,0,0,0,0,0,0,0,0,0,0,0,0,0,0,0,0,0,0,0,0,0,0,0,0,0,0,0,0,0,0,-0.412,-0.412,0,-0.413,-0.413,-0.413,-0.4092,-0.4091,-0.409,-0.4089,-0.4102,-0.4103,-0.4104,0,0,0,0,0,0,0,0,0,0,0,0,0,-0.4072,-0.4073,-0.412,-0.412,-0.412,-0.413,-0.413,-0.413,-0.4092,-0.4091,-0.409,-0.4088,-0.4101,-0.4103,-0.4104,0,0,0,0,0,0,0,0,0,0,0,0,0,-0.4088,-0.4073,-0.412,-0.4103,-0.4101,-0.4129,-0.413,-0.413,-0.4093,-0.4091,-0.4089,-0.4088,-0.4101,-0.4103,-0.4105,-0.4151,0,0,-0.4111,-0.4112,0,0,0,0,0,0,0,0,-0.4087,-0.409,-0.4105,-0.4104,-0.4102,-0.4108,-0.4117,-0.4137,-0.4093,-0.4096,-0.4089,-0.4087,-0.4105,-0.4107,-0.4112,-0.4152,-0.4152,-0.4111,-0.4112,-0.4113,-0.4114,0,0,0,0,0,0,0,-0.4086,-0.409,-0.4124,-0.4105,-0.4104,-0.4095,-0.4096,-0.4121,-0.411,-0.4096,-0.4093,-0.4094,-0.4104,-0.411,-0.4112,-0.4152,-0.4111,-0.4113,-0.4114,-0.4115,-0.4231,-0.4232,0,0,0,0,0,0,-0.4087,-0.4089,-0.4124,-0.4124,-0.409,-0.4097,-0.4098,-0.4108,-0.411,-0.4108,-0.4096,-0.4093,-0.4108,-0.411,-0.4113,-0.4168,-0.4113,-0.4115,-0.4116,-0.4229,-0.4231,-0.4233,0,0,0,0,0,0,-0.4086,-0.4091,-0.4123,-0.4106,-0.4109,-0.41,-0.4111,-0.4109,-0.4115,-0.411,-0.4108,-0.4104,-0.4106,-0.411,-0.4142,-0.4168,-0.4116,-0.4118,-0.4227,-0.4229,-0.4232,-0.4279,0,0,0,0,0,0,-0.4085,-0.409,-0.4108,-0.4106,-0.411,-0.4152,-0.4113,-0.411,-0.4119,-0.4114,-0.4117,-0.4116,-0.4105,-0.4139,-0.4144,-0.417,-0.412,-0.4224,-0.4228,-0.4231,-0.4275,-0.4283,-0.4289,0,0,0,0,0,-0.4083,-0.4121,-0.4109,-0.4113,-0.4131,-0.4153,-0.4156,-0.4142,-0.4121,-0.4138,-0.4135,-0.4116,-0.4164,-0.4142,-0.4148,-0.4175,-0.4223,-0.4227,-0.4231,-0.4272,-0.4281,-0.4289,0,0,0,0,0,0,-0.4127,-0.4121,-0.4107,-0.4145,-0.415,-0.4147,-0.4169,-0.4152,-0.4164,-0.416,-0.4143,-0.4144,-0.4179,-0.418,-0.4156,-0.422,-0.419,-0.4195,-0.4219,-0.4228,-0.4235,-0.4235,-0.4121,0,0,0,0,0,-0.4141,-0.4158,-0.4152,-0.4186,-0.4189,-0.4178,-0.4187,-0.4176,-0.4181,-0.4183,-0.4182,-0.4188,-0.4204,-0.4216,-0.423,-0.4274,-0.4274,-0.4295,-0.4302,-0.4308,-0.4314,-0.4337,-0.4347,-0.4246,-0.4246,-0.4246,0,0,-0.417,-0.4169,-0.4181,-0.4195,-0.4197,-0.4217,-0.4181,-0.4202,-0.4217,-0.4187,-0.4217,-0.4216,-0.4222,-0.426,-0.4276,-0.4261,-0.4341,-0.4313,-0.4318,-0.4321,-0.4343,-0.4352,-0.4361,-0.4249,-0.4249,-0.4248,0,0,-0.4234,-0.4234,-0.4263,-0.4265,-0.4269,-0.4261,-0.4268,-0.4267,-0.4265,-0.4295,-0.4273,-0.429,-0.4318,-0.4323,-0.4329,-0.4393,-0.4377,-0.4398,-0.4438,-0.4461,-0.4469,-0.4476,-0.45,-0.4509,-0.4404,-0.4404,-0.4404,0,-0.427,-0.4298,-0.428,-0.4303,-0.431,-0.4282,-0.4312,-0.4315,-0.4324,-0.433,-0.4312,-0.4347,-0.4349,-0.4388,-0.4404,-0.4409,-0.4417,-0.4399,-0.4469,-0.4476,-0.4482,-0.4505,-0.4514,-0.4406,-0.4406,-0.4406,-0.4406,0,-0.4343,-0.4362,-0.4385,-0.4393,-0.4402,-0.4429,-0.4416,-0.4428,-0.4415,-0.441,-0.444,-0.4441,-0.4455,-0.4463,-0.4452,-0.4501,-0.4492,-0.4471,-0.4441,-0.4495,-0.4516,-0.4525,-0.441,-0.4409,-0.4409,-0.4408,0,0,-0.4437,-0.4433,-0.4442,-0.4445,-0.4446,-0.4462,-0.4486,-0.45,-0.4511,-0.4517,-0.4539,-0.4562,-0.4544,-0.4551,-0.4539,-0.4559,-0.4611,-0.4537,-0.4537,-0.4552,-0.4667,-0.4684,-0.4694,-0.4599,-0.4601,-0.4602,-0.4667,0,-0.45,-0.4542,-0.4527,-0.457,-0.4589,-0.4561,-0.4583,-0.4587,-0.4582,-0.4597,-0.4591,-0.4609,-0.4582,-0.4587,-0.4605,-0.4601,-0.4635,-0.4596,-0.4621,-0.4622,-0.4622,-0.4705,-0.4723,-0.4784,-0.4675,-0.4676,-0.4677,0,-0.4581,-0.4589,-0.4635,-0.4633,-0.464,-0.466,-0.467,-0.4684,-0.4688,-0.4683,-0.469,-0.4674,-0.4699,-0.4667,-0.4702,-0.4676,-0.4684,-0.4684,-0.4686,-0.469,-0.4655,-0.4713,-0.4803,-0.4813,-0.469,-0.4689,-0.4688,0,-0.4647,-0.4669,-0.47,-0.4703,-0.4701,-0.4716,-0.4716,-0.4717,-0.4726,-0.4735,-0.4741,-0.4753,-0.476,-0.477,-0.4758,-0.4736,-0.4795,-0.4762,-0.4793,-0.4794,-0.4809,-0.4809,-0.4905,-0.4811,-0.4811,-0.4811,-0.4811,0,-0.4721,-0.475,-0.4729,-0.4748,-0.478,-0.4761,-0.4794,-0.4791,-0.4792,-0.4811,-0.4787,-0.4805,-0.4786,-0.4803,-0.4793,-0.4824,-0.4827,-0.4825,-0.4822,-0.4828,-0.4829,-0.4836,-0.4832,-0.4814,-0.4813,-0.4813,-0.4812,0,-0.4801,-0.4788,-0.482,-0.4814,-0.4813,-0.4837,-0.4833,-0.4851,-0.4843,-0.4867,-0.4871,-0.486,-0.4878,-0.4866,-0.4884,-0.4877,-0.4919,-0.4909,-0.4918,-0.4916,-0.4949,-0.4947,-0.5054,-0.5068,-0.4964,-0.4965,-0.4965,0,-0.4851,-0.4872,-0.4869,-0.4879,-0.488,-0.4897,-0.4905,-0.4887,-0.4897,-0.4901,-0.4919,-0.4934,-0.4946,-0.4976,-0.497,-0.4984,-0.4976,-0.5012,-0.4978,-0.4983,-0.4979,-0.4978,-0.4981,-0.502,-0.5021,-0.5022,-0.5023,0,-0.494,-0.4932,-0.4945,-0.4955,-0.4966,-0.4973,-0.4979,-0.4989,-0.497,-0.4983,-0.5,-0.5009,-0.5027,-0.5043,-0.5054,-0.5055,-0.5037,-0.5033,-0.5042,-0.5049,-0.5054,-0.5054,-0.4939,-0.5032,-0.5031,-0.503,-0.503,-0.503,-0.5008,-0.5026,-0.5026,-0.5041,-0.5043,-0.5049,-0.5065,-0.5059,-0.5073,-0.5086,-0.5074,-0.5095,-0.5097,-0.511,-0.5113,-0.5129,-0.5115,-0.5126,-0.513,-0.5134,-0.5139,-0.5049,-0.5131,-0.5131,-0.5131,-0.513,-0.513,0,-0.5098,-0.5096,-0.511,-0.5118,-0.513,-0.5109,-0.5114,-0.5126,-0.5145,-0.5148,-0.5159,-0.5179,-0.5195,-0.5189,-0.5203,-0.5217,-0.5209,-0.5222,-0.5222,-0.5222,-0.5151,-0.5143,-0.5228,-0.5228,-0.5228,-0.5228,-0.5228,-0.5228,-0.5146,-0.5176,-0.5168,-0.5199,-0.5197,-0.5217,-0.5222,-0.5227,-0.523,-0.5253,-0.5265,-0.5261,-0.526,-0.5273,-0.5287,-0.5285,-0.5292,-0.5308,-0.5303,-0.5237,-0.5227,-0.5218,-0.5211,-0.5309,-0.5309,-0.5373,-0.5374,-0.5374]},{"header":{"parameterUnit":"m.s-1","parameterCategory":1,"la1":30.2991,"la2":30.254,"lo1":-89.0895,"lo2":-89.0444,"dy":0.0017,"dx":0.0017,"nx":28,"ny":28,"refTime":"2024-03-09T03:00:00:Z","depth":0,"parameterNumber":3,"parameterNumberName":"V-component_of_WINDS"},"data":[0,0,0,0,0,0,0,0,0,0,0,0,0,0,0,0,0,0,0,0,0,0,0,0,0,0,0,0,0,0,0,0,0,0,0,0,0,0,0,0,0,0,0,0,0,0,0,0,0,0,0,0,0,0,0,0,0,0,-4.8867,-4.8868,0,-4.8958,-4.8959,-4.896,-4.8872,-4.8869,-4.8865,-4.8862,-4.8952,-4.8958,-4.8964,0,0,0,0,0,0,0,0,0,0,0,0,0,-4.8618,-4.8623,-4.8867,-4.8869,-4.887,-4.8957,-4.8959,-4.896,-4.8873,-4.8868,-4.8864,-4.886,-4.8951,-4.8957,-4.8964,0,0,0,0,0,0,0,0,0,0,0,0,0,-4.8719,-4.8625,-4.8867,-4.8837,-4.8835,-4.8957,-4.8959,-4.896,-4.8874,-4.8868,-4.8863,-4.8858,-4.8948,-4.8957,-4.8965,-4.9121,0,0,-4.8991,-4.8994,0,0,0,0,0,0,0,0,-4.8714,-4.8729,-4.884,-4.8839,-4.8837,-4.8898,-4.8904,-4.9014,-4.8875,-4.8859,-4.8862,-4.8856,-4.8939,-4.8947,-4.8976,-4.9126,-4.9129,-4.8992,-4.8997,-4.9,-4.9003,0,0,0,0,0,0,0,-4.8707,-4.8724,-4.8903,-4.8842,-4.884,-4.8818,-4.8827,-4.8924,-4.8927,-4.886,-4.8854,-4.8866,-4.8937,-4.8968,-4.8977,-4.9131,-4.8991,-4.8999,-4.9004,-4.9007,-4.9414,-4.942,0,0,0,0,0,0,-4.8703,-4.8719,-4.89,-4.8906,-4.8761,-4.8827,-4.8836,-4.8884,-4.8925,-4.8927,-4.887,-4.8861,-4.8956,-4.8967,-4.898,-4.9167,-4.9,-4.9008,-4.9013,-4.9409,-4.9416,-4.9422,0,0,0,0,0,0,-4.8698,-4.872,-4.8896,-4.8811,-4.8831,-4.8837,-4.8891,-4.8888,-4.8919,-4.8933,-4.8933,-4.8902,-4.8952,-4.8968,-4.9087,-4.9169,-4.9012,-4.902,-4.9402,-4.9411,-4.9419,-4.9542,0,0,0,0,0,0,-4.8692,-4.8719,-4.8779,-4.8813,-4.8836,-4.9003,-4.8896,-4.8894,-4.8935,-4.8924,-4.8963,-4.8964,-4.8949,-4.9075,-4.9096,-4.9178,-4.9026,-4.9395,-4.9406,-4.9416,-4.953,-4.9553,-4.9573,0,0,0,0,0,-4.8683,-4.8809,-4.8782,-4.8805,-4.8911,-4.9008,-4.9021,-4.9003,-4.8941,-4.9002,-4.901,-4.8963,-4.9156,-4.9088,-4.911,-4.9196,-4.9389,-4.9403,-4.9415,-4.9521,-4.9549,-4.9573,0,0,0,0,0,0,-4.8784,-4.8813,-4.8784,-4.8925,-4.8965,-4.8993,-4.9068,-4.9033,-4.909,-4.9078,-4.9051,-4.9061,-4.9187,-4.9203,-4.9127,-4.935,-4.9263,-4.9281,-4.9335,-4.9362,-4.9383,-4.9377,-4.9033,0,0,0,0,0,-4.8823,-4.8899,-4.892,-4.9043,-4.9064,-4.9063,-4.9104,-4.9087,-4.9126,-4.9143,-4.916,-4.92,-4.927,-4.9317,-4.9382,-4.9532,-4.9539,-4.9602,-4.9623,-4.9641,-4.9657,-4.9738,-4.9767,-4.9464,-4.9464,-4.9464,0,0,-4.8904,-4.8929,-4.8979,-4.9064,-4.9092,-4.9172,-4.9078,-4.9166,-4.9225,-4.9156,-4.927,-4.9284,-4.9327,-4.9463,-4.9523,-4.948,-4.9742,-4.9657,-4.9671,-4.9678,-4.9755,-4.9783,-4.9809,-4.9473,-4.9471,-4.947,0,0,-4.9092,-4.9119,-4.9224,-4.9255,-4.93,-4.9299,-4.9324,-4.9358,-4.9366,-4.948,-4.943,-4.9499,-4.962,-4.9653,-4.9686,-4.9887,-4.9846,-4.9909,-5.0021,-5.0101,-5.0125,-5.0146,-5.0219,-5.0245,-4.9925,-4.9925,-4.9925,0,-4.9187,-4.9305,-4.9283,-4.9375,-4.9414,-4.9356,-4.9463,-4.9494,-4.9558,-4.9586,-4.9537,-4.9688,-4.9712,-4.9856,-4.9905,-4.9933,-4.9961,-4.9905,-5.0123,-5.0144,-5.0163,-5.0233,-5.026,-4.9933,-4.9932,-4.9931,-4.993,0,-4.942,-4.9503,-4.9583,-4.9648,-4.9695,-4.9794,-4.9787,-4.9838,-4.9816,-4.9819,-4.9937,-4.9964,-5.0034,-5.0067,-5.0045,-5.0207,-5.0179,-5.0127,-5.0039,-5.02,-5.0265,-5.0291,-4.9943,-4.9941,-4.9938,-4.9937,0,0,-4.9675,-4.9726,-4.9756,-4.9785,-4.9831,-4.9895,-4.9991,-5.006,-5.0105,-5.0151,-5.0232,-5.0335,-5.0288,-5.0325,-5.0307,-5.0377,-5.0536,-5.0316,-5.0316,-5.0357,-5.0718,-5.0758,-5.0789,-5.0509,-5.0514,-5.0518,-5.0714,0,-4.9866,-5.0035,-5.0017,-5.0178,-5.0255,-5.0201,-5.0285,-5.0322,-5.0328,-5.0393,-5.0399,-5.0474,-5.0405,-5.0427,-5.0494,-5.0503,-5.0609,-5.0488,-5.0584,-5.0587,-5.0576,-5.0823,-5.0865,-5.105,-5.074,-5.0744,-5.0747,0,-5.0111,-5.0168,-5.0336,-5.0371,-5.0403,-5.0479,-5.0541,-5.0605,-5.0646,-5.0645,-5.0687,-5.0657,-5.0754,-5.0663,-5.0796,-5.0715,-5.0753,-5.0763,-5.077,-5.0779,-5.0678,-5.084,-5.1108,-5.1136,-5.0786,-5.0783,-5.078,0,-5.0283,-5.04,-5.0516,-5.0542,-5.0586,-5.0641,-5.0661,-5.0697,-5.074,-5.0794,-5.0822,-5.0887,-5.0922,-5.0973,-5.0961,-5.0896,-5.1098,-5.1006,-5.11,-5.1101,-5.1146,-5.1144,-5.1426,-5.1169,-5.1168,-5.1168,-5.1167,0,-5.0498,-5.0604,-5.0594,-5.0665,-5.0782,-5.0761,-5.0877,-5.089,-5.0923,-5.0996,-5.0952,-5.1022,-5.1001,-5.107,-5.1061,-5.1173,-5.1189,-5.1191,-5.1188,-5.1196,-5.1196,-5.1222,-5.1209,-5.1175,-5.1174,-5.1172,-5.1171,0,-5.071,-5.0707,-5.083,-5.0862,-5.0872,-5.0957,-5.0983,-5.1051,-5.1053,-5.1146,-5.1167,-5.1171,-5.1249,-5.1242,-5.133,-5.1324,-5.1463,-5.1444,-5.145,-5.1447,-5.1542,-5.1534,-5.1852,-5.1893,-5.1608,-5.161,-5.1613,0,-5.0848,-5.0928,-5.0969,-5.1015,-5.104,-5.1115,-5.1159,-5.1141,-5.1188,-5.1242,-5.1303,-5.1378,-5.1437,-5.1564,-5.1575,-5.1642,-5.1624,-5.1731,-5.1634,-5.164,-5.1628,-5.1624,-5.1632,-5.1751,-5.1754,-5.1756,-5.1758,0,-5.1095,-5.109,-5.1156,-5.1222,-5.1276,-5.1327,-5.1373,-5.1413,-5.14,-5.1455,-5.1536,-5.1582,-5.1672,-5.1747,-5.1811,-5.183,-5.1794,-5.1789,-5.1814,-5.1825,-5.1826,-5.1828,-5.1504,-5.1782,-5.1779,-5.1778,-5.1777,-5.1776,-5.1275,-5.1345,-5.1384,-5.1459,-5.1492,-5.1536,-5.1602,-5.1613,-5.168,-5.1753,-5.1737,-5.1828,-5.1867,-5.1949,-5.1976,-5.2046,-5.2008,-5.2044,-5.2054,-5.2064,-5.2076,-5.1813,-5.2057,-5.2057,-5.2056,-5.2055,-5.2055,0,-5.1521,-5.1544,-5.1613,-5.168,-5.1739,-5.1699,-5.1748,-5.18,-5.1881,-5.192,-5.198,-5.2072,-5.2145,-5.2161,-5.2231,-5.2284,-5.2269,-5.2303,-5.2299,-5.2305,-5.2106,-5.2077,-5.2314,-5.2314,-5.2314,-5.2314,-5.2314,-5.2314,-5.1656,-5.1772,-5.1772,-5.1903,-5.1925,-5.2014,-5.2046,-5.2087,-5.2118,-5.2224,-5.2285,-5.2295,-5.2326,-5.2397,-5.2462,-5.2465,-5.2493,-5.2535,-5.2531,-5.2345,-5.2319,-5.2294,-5.2267,-5.2541,-5.2541,-5.2725,-5.2726,-5.2728]}]]